sat.trackr.live / text

‹ back to catalog

STARLINK-37045

NORAD 68074 · 2026-042F

PAYLOAD ACTIVE UNKNOWN

§ Identity

Operator
Country
US
Launch date
2026-03-04
Launch site
AFETR
Launch vehicle
Mass (kg)
RCS (m²)

Purposes: comms

External: N2YO · Heavens-Above · Gunter

§ Orbital elements

Epoch: 2026-09-19T18:14:40.871328Z

Period
93.85 min
Inclination
53.1604°
Eccentricity
0.0001654
Mean motion
15.34411004 rev/d
Perigee alt
461.5 km
Apogee alt
463.8 km
Semi-major
6,840.8 km
B*
5.8202e-4
RAAN
353.3713°
Arg perigee
54.8961°
Mean anomaly
305.2196°
Rev number
3,207

§ Raw data

STARLINK-370451 68074U 26042F   26262.76019527  .00019346  00000+0  58202-3 0  99962 68074  53.1604 353.3713 0001654  54.8961 305.2196 15.34411004 32071

JSON: /api/v1/satellites/68074 · /tle

For live sub-satellite position, see the globe view (requires WebGL).

§ Visibility from observer

Set your observer location to see the next 7 days of passes ≥ 10°. The values pass through the URL so the page stays shareable.

No JS? Fill the form by hand. The geolocation button needs JavaScript.